Location: Okie-Tex Star Party
(36.8978°N, 102.9520°W)
Time: 21:41:50
(UTC-06:00)

Amateur Radio Satellites - All Passes

Search period start: 21 January 2017 21:11
Search period end: 22 January 2017 21:11
Location: Okie-Tex Star Party, 36.8978°N, 102.9520°W

Satellite Date Start Highest point End Downlink Frequencies (MHz)
Time Altitude Azimuth
COMPASS 1 21 Jan 21:12:04 21:15:23 23° 265° (W) 21:18:44 437.405
AAUSAT CUBESAT 2 21 Jan 21:21:47 21:25:06 23° 265° (W) 21:28:28 437.432
ISS 21 Jan 21:23:16 21:25:58 24° 131° (SE) 21:28:41 145.825
Oscar 11 21 Jan 21:35:01 21:39:08 45° 261° (W) 21:43:17 145.826/435.025
Cosmos 2499 21 Jan 21:45:28 21:52:18 27° 287° (WNW) 21:58:48 435.465 / 435.565
GONETS M04 21 Jan 21:58:06 22:05:34 31° 288° (WNW) 22:13:07
UNISAT 6 21 Jan 22:01:39 22:04:34 17° 94° (E) 22:07:29 437.425
BY70-1 21 Jan 22:06:38 22:06:48 10° 66° (ENE) 22:06:57 436.1900
TIGRISAT 21 Jan 22:14:03 22:17:30 21° 95° (E) 22:20:59 435.000
FUNcube-1 21 Jan 22:15:51 22:18:00 14° 268° (W) 22:20:11 145.935
ESTCUBE 1 21 Jan 22:18:37 22:20:28 12° 64° (ENE) 22:22:20 437.505/2401.250
DELFI C3 21 Jan 22:24:51 22:28:30 33° 263° (W) 22:32:10 145.870
AO-85 21 Jan 22:25:56 22:28:54 20° 50° (NE) 22:31:51 145.980
ANTELSAT 21 Jan 22:29:11 22:33:16 34° 98° (E) 22:37:24 437.575/2403.000
RS-15 21 Jan 22:34:36 22:44:13 31° 103° (ESE) 22:54:07 29.354- 29.394
HUMSAT D 21 Jan 22:34:43 22:38:42 51° 260° (W) 22:42:45 437.325/437.525
PRISM 21 Jan 22:45:05 22:48:58 42° 287° (WNW) 22:52:48 437.425
ISS 21 Jan 22:59:27 23:02:21 29° 327° (NNW) 23:05:16 145.825
CUBEBUG 1 21 Jan 23:03:50 23:07:13 22° 69° (ENE) 23:10:35 437.445
JAS-2 21 Jan 23:18:10 23:25:12 45° 98° (E) 23:32:37 435.910
AISAT 21 Jan 23:24:15 23:27:49 24° 69° (ENE) 23:31:24 437.250
BY70-1 21 Jan 23:33:58 23:36:39 31° 263° (W) 23:39:32 436.1900
UNISAT 6 21 Jan 23:37:12 23:41:22 39° 287° (WNW) 23:45:37 437.425
POPSAT HIP 1 21 Jan 23:37:23 23:40:00 16° 94° (E) 23:42:36 437.405
DUCHIFAT 1 21 Jan 23:46:01 23:48:48 17° 94° (E) 23:51:35 145.980
TIGRISAT 21 Jan 23:50:15 23:54:10 31° 289° (WNW) 23:58:08 435.000
NANOSAT C BR1 21 Jan 23:51:58 23:55:17 22° 96° (E) 23:58:36 145.865
ESTCUBE 1 21 Jan 23:52:15 23:56:43 60° 259° (W) 00:01:13 437.505/2401.250
50 SAT 21 Jan 23:55:24 23:58:36 32° 73° (ENE) 00:01:50 437.505
VELOX 1 21 Jan 23:56:39 00:00:58 52° 74° (ENE) 00:05:17 145.980
AO-85 22 Jan 00:05:54 00:09:17 29° 247° (WSW) 00:12:42 145.980
ANTELSAT 22 Jan 00:06:27 00:09:44 20° 292° (WNW) 00:13:03 437.575/2403.000
SPROUT 22 Jan 00:13:21 00:17:31 57° 75° (ENE) 00:21:42 437.525
BUGSAT 1 22 Jan 00:15:07 00:16:35 12° 93° (E) 00:18:02 437.445
PCSat 22 Jan 00:15:55 00:20:42 33° 109° (ESE) 00:25:30 145.827
UKube-1 22 Jan 00:19:43 00:23:32 31° 71° (ENE) 00:27:21 .
BEESAT 3 22 Jan 00:22:17 00:23:52 12° 46° (NE) 00:25:26 437.485
DX 1 22 Jan 00:23:26 00:27:39 49° 73° (ENE) 00:31:52 434.975-435.025
CUBEBUG 1 22 Jan 00:39:26 00:43:18 29° 263° (W) 00:47:10 437.445
RS-15 22 Jan 00:43:47 00:55:35 72° 303° (WNW) 01:07:58 29.354- 29.394
QB50P1 22 Jan 00:44:37 00:48:50 76° 284° (WNW) 00:53:03 145.935-145.965
POLYITAN 1 22 Jan 00:49:20 00:53:32 66° 284° (WNW) 00:57:45 437.675
QB50P2 22 Jan 00:50:41 00:54:51 59° 285° (WNW) 00:59:01 145.880/145.840
AISAT 22 Jan 01:00:21 01:04:08 27° 263° (W) 01:07:55 437.250
JAS-2 22 Jan 01:03:29 01:09:58 36° 292° (WNW) 01:16:51 435.910
Oscar 19 22 Jan 01:03:44 01:05:52 12° 91° (E) 01:08:00 437.125/150
BEESAT 2 22 Jan 01:09:51 01:12:26 16° 48° (NE) 01:15:01 435.950
POPSAT HIP 1 22 Jan 01:12:00 01:15:52 36° 288° (WNW) 01:19:45 437.405
PHONESAT 2.4 22 Jan 01:17:30 01:19:31 29° 153° (SSE) 01:21:32 2401.200-2431.200
DUCHIFAT 1 22 Jan 01:20:45 01:24:32 33° 288° (WNW) 01:28:19 145.980
YUBILEINY 22 Jan 01:25:40 01:34:06 47° 77° (ENE) 01:42:23 435.215
NANOSAT C BR1 22 Jan 01:27:26 01:30:56 26° 290° (WNW) 01:34:27 145.865
AIST 1 22 Jan 01:29:07 01:33:20 58° 81° (E) 01:37:30
BEESAT 22 Jan 01:30:04 01:31:51 12° 63° (ENE) 01:33:38 436.000
50 SAT 22 Jan 01:30:21 01:31:54 12° 267° (W) 01:33:27 437.505
SWISSCUBE 22 Jan 01:31:09 01:33:36 14° 64° (ENE) 01:36:03 437.505
Gurwin Techsat 1B 22 Jan 01:31:10 01:33:20 12° 91° (E) 01:35:31 435.225
TISAT 1 22 Jan 01:35:20 01:39:28 68° 76° (ENE) 01:43:38 437.305
VELOX 1 22 Jan 01:35:52 01:37:41 12° 268° (W) 01:39:31 145.980
Cosmos 2504 22 Jan 01:38:09 01:44:01 25° 71° (ENE) 01:49:44 435.465 / 435.565
BUGSAT 1 22 Jan 01:48:16 01:52:08 45° 286° (WNW) 01:56:01 437.445
UKube-1 22 Jan 01:56:26 01:59:34 20° 265° (W) 02:02:44 .
BEESAT 3 22 Jan 01:57:55 02:01:53 66° 243° (WSW) 02:05:50 437.485
PCSat 22 Jan 01:59:16 02:04:02 31° 305° (NW) 02:08:51 145.827
DX 1 22 Jan 02:02:07 02:04:04 13° 268° (W) 02:06:01 434.975-435.025
Cosmos 2491 22 Jan 02:12:02 02:20:20 52° 90° (E) 02:28:40 435.465 / 435.565
ITUPSAT 1 22 Jan 02:30:58 02:35:34 51° 72° (ENE) 02:40:11 437.325
Oscar 19 22 Jan 02:40:29 02:45:37 67° 286° (WNW) 02:50:41 437.125/150
MOZHAYETS 4 22 Jan 02:45:42 02:49:05 21° 68° (ENE) 02:52:29
BEESAT 2 22 Jan 02:46:34 02:50:26 44° 245° (WSW) 02:54:16 435.950
PHONESAT 2.4 22 Jan 02:51:14 02:53:23 41° 348° (NNW) 02:55:32 2401.200-2431.200
CUSAT 1 22 Jan 02:51:43 02:55:59 27° 84° (E) 03:01:12 437.405
AO-7 22 Jan 02:57:05 03:01:45 16° 91° (E) 03:06:22 29.400- 29.500
RS-15 22 Jan 03:01:28 03:10:50 25° 331° (NNW) 03:20:25 29.354- 29.394
BEESAT 22 Jan 03:04:18 03:09:01 68° 258° (WSW) 03:13:46 436.000
SWISSCUBE 22 Jan 03:06:12 03:10:52 57° 259° (W) 03:15:34 437.505
Gurwin Techsat 1B 22 Jan 03:08:26 03:13:44 70° 286° (WNW) 03:19:00 435.225
KKS-1 22 Jan 03:14:09 03:16:09 13° 64° (ENE) 03:18:09 437.445
M-CUBED/EXP-1 PRIME 22 Jan 03:19:20 03:23:01 27° 67° (ENE) 03:26:30 437.505
YUBILEINY 22 Jan 03:22:54 03:30:33 35° 275° (W) 03:38:10 435.215
ITAMSAT 1 22 Jan 03:27:25 03:32:06 33° 98° (E) 03:36:46 435.822/435.867
Cosmos 2504 22 Jan 03:30:43 03:37:41 50° 270° (W) 03:44:30 435.465 / 435.565
CUBESAT XI-V 22 Jan 03:38:24 03:39:48 11° 63° (ENE) 03:41:12 437.345
ISS 22 Jan 03:53:00 03:55:13 17° 27° (NNE) 03:57:26 145.825
AUBIESAT-1 22 Jan 03:53:53 03:58:05 54° 70° (ENE) 04:02:00 437.475
DANDE 22 Jan 04:00:33 04:03:43 24° 86° (E) 04:07:41 436.750
STARS 22 Jan 04:01:08 04:04:10 19° 67° (ENE) 04:07:13 437.465
Cosmos 2491 22 Jan 04:09:58 04:17:25 31° 288° (WNW) 04:24:57 435.465 / 435.565
ITUPSAT 1 22 Jan 04:11:07 04:13:39 14° 268° (W) 04:16:13 437.325
MOZHAYETS 4 22 Jan 04:21:51 04:25:59 34° 263° (W) 04:30:10
PHONESAT 2.4 22 Jan 04:25:29 04:27:32 30° 5° (N) 04:29:35 2401.200-2431.200
CUSAT 1 22 Jan 04:32:45 04:37:32 37° 289° (WNW) 04:43:37 437.405
AO-7 22 Jan 04:47:01 04:55:26 90° 112° (ESE) 05:03:46 29.400- 29.500
KKS-1 22 Jan 04:47:52 04:52:13 55° 259° (W) 04:56:35 437.445
M-CUBED/EXP-1 PRIME 22 Jan 04:53:51 04:57:24 23° 258° (WSW) 05:00:46 437.505
AIST 2 22 Jan 05:00:10 05:04:26 87° 56° (NE) 05:08:40 435.215
ITAMSAT 1 22 Jan 05:07:05 05:11:24 27° 293° (WNW) 05:15:44 435.822/435.867
CUBESAT XI-V 22 Jan 05:11:51 05:16:31 71° 259° (W) 05:21:14 437.345
RS-15 22 Jan 05:22:45 05:30:00 17° 7° (N) 05:37:12 29.354- 29.394
ISS 22 Jan 05:28:45 05:31:58 61° 223° (SW) 05:35:10 145.825
AUBIESAT-1 22 Jan 05:31:20 05:32:37 11° 262° (W) 05:33:53 437.475
STARS 22 Jan 05:36:14 05:40:15 35° 262° (W) 05:44:15 437.465
DANDE 22 Jan 05:43:15 05:46:24 22° 293° (WNW) 05:50:18 436.750
Cosmos 2499 22 Jan 05:47:27 05:50:38 13° 65° (ENE) 05:53:47 435.465 / 435.565
GOMX 1 22 Jan 05:48:53 05:52:29 25° 95° (E) 05:55:56 467.674
HORYU 2 22 Jan 05:50:48 05:54:47 31° 98° (E) 05:58:45 437.375
BRITE-PL 22 Jan 05:54:04 05:58:53 87° 109° (ESE) 06:03:16 437.365/2234.400
PHONESAT 2.4 22 Jan 05:59:20 06:01:35 77° 198° (SSW) 06:03:48 2401.200-2431.200
O/OREOS (USA 219) 22 Jan 05:59:46 06:03:41 30° 104° (ESE) 06:07:36 437.305
STRAND 1 22 Jan 06:07:35 06:10:07 14° 63° (ENE) 06:12:40 437.568
GONETS M04 22 Jan 06:14:02 06:20:38 23° 68° (ENE) 06:27:12
DOVE 4 22 Jan 06:18:32 06:21:30 19° 94° (E) 06:24:28 437.250
CUTE-I 22 Jan 06:30:37 06:35:19 31° 97° (E) 06:39:58 437.470
AO-7 22 Jan 06:41:38 06:47:04 20° 306° (NW) 06:52:30 29.400- 29.500
SO-50 22 Jan 06:55:15 06:58:25 18° 110° (ESE) 07:01:33 436.795
LilacSat-2 22 Jan 07:11:16 07:15:08 74° 284° (WNW) 07:19:00 437.200
Cubesat XI-IV 22 Jan 07:13:58 07:19:20 80° 103° (ESE) 07:24:41 437.490
CANX-2 22 Jan 07:14:38 07:15:49 11° 91° (E) 07:17:00 2200.000
NOAA 15 22 Jan 07:15:59 07:21:20 88° 102° (ESE) 07:26:38 137.62
GOMX 1 22 Jan 07:27:03 07:30:28 23° 291° (WNW) 07:33:44 467.674
HORYU 2 22 Jan 07:27:45 07:31:07 21° 292° (WNW) 07:34:28 437.375
CINEMA 3 22 Jan 07:32:18 07:36:00 29° 97° (E) 07:39:48 145.822/145.860
NOAA 18 22 Jan 07:34:08 07:39:34 64° 103° (ESE) 07:44:57 137.9125
RS-15 22 Jan 07:36:52 07:47:57 36° 41° (NE) 07:58:40 29.354- 29.394
Cosmos 2499 22 Jan 07:37:36 07:44:44 87° 267° (W) 07:51:50 435.465 / 435.565
O/OREOS (USA 219) 22 Jan 07:39:35 07:43:04 22° 299° (WNW) 07:46:35 437.305
STRAND 1 22 Jan 07:43:39 07:48:42 66° 258° (WSW) 07:53:47 437.568
DOVE 4 22 Jan 07:55:40 07:59:14 28° 289° (WNW) 08:02:46 437.250
HO-68 22 Jan 08:06:15 08:13:06 46° 100° (E) 08:19:53 435.675
GONETS M04 22 Jan 08:09:26 08:18:13 72° 267° (W) 08:27:00
CUTE-I 22 Jan 08:10:39 08:15:15 30° 292° (WNW) 08:19:51 437.470
CUBEBUG 2 22 Jan 08:14:02 08:17:18 20° 95° (E) 08:20:37 437.445
CUTE 1.7 + AOD 2 22 Jan 08:18:03 08:22:16 55° 99° (E) 08:26:28 437.475
SO-50 22 Jan 08:33:58 08:38:31 46° 304° (NW) 08:43:01 436.795
UWE-3 22 Jan 08:37:58 08:41:31 23° 96° (E) 08:45:08 435.000/436.395/437.385
CANX-2 22 Jan 08:47:46 08:51:59 54° 285° (WNW) 08:56:09 2200.000
ZACube-1 22 Jan 08:52:21 08:55:37 20° 94° (E) 08:58:56 437.345
SEEDS 22 Jan 08:54:27 08:58:43 82° 282° (WNW) 09:02:57 437.485
COMPASS 1 22 Jan 08:55:56 09:00:07 65° 100° (E) 09:04:15 437.405
Cubesat XI-IV 22 Jan 08:56:34 08:58:41 12° 299° (WNW) 09:00:48 437.490
NOAA 15 22 Jan 08:58:52 09:00:18 11° 300° (WNW) 09:01:44 137.62
UNISAT 6 22 Jan 09:00:26 09:01:30 11° 64° (ENE) 09:02:34 437.425
AAUSAT CUBESAT 2 22 Jan 09:05:07 09:09:17 63° 101° (E) 09:13:23 437.432
PCSat 22 Jan 09:06:20 09:10:07 19° 49° (NE) 09:13:53 145.827
CINEMA 3 22 Jan 09:09:51 09:12:58 20° 291° (WNW) 09:16:09 145.822/145.860
TIGRISAT 22 Jan 09:11:55 09:14:06 14° 66° (ENE) 09:16:16 435.000
NOAA 18 22 Jan 09:16:26 09:19:38 16° 298° (WNW) 09:22:50 137.9125
Oscar 11 22 Jan 09:24:20 09:28:23 37° 98° (E) 09:32:26 145.826/435.025
ANTELSAT 22 Jan 09:26:29 09:29:43 22° 69° (ENE) 09:32:59 437.575/2403.000
PRISM 22 Jan 09:31:22 09:35:33 85° 261° (W) 09:39:44 437.425
JAS-2 22 Jan 09:33:05 09:34:41 11° 57° (ENE) 09:36:18 435.910
Cosmos 2499 22 Jan 09:34:58 09:36:38 11° 282° (WNW) 09:38:19 435.465 / 435.565
RS-15 22 Jan 09:49:20 10:01:35 74° 245° (WSW) 10:13:17 29.354- 29.394
CUBEBUG 2 22 Jan 09:50:01 09:53:55 32° 288° (WNW) 09:57:55 437.445
HO-68 22 Jan 09:54:23 10:00:32 32° 296° (WNW) 10:06:40 435.675
CUTE 1.7 + AOD 2 22 Jan 09:56:00 09:57:35 12° 295° (WNW) 09:59:10 437.475
FUNcube-1 22 Jan 10:03:14 10:07:38 68° 284° (WNW) 10:12:05 145.935
DELFI C3 22 Jan 10:04:08 10:07:45 32° 97° (E) 10:11:19 145.870
GONETS M04 22 Jan 10:11:22 10:13:20 11° 285° (WNW) 10:15:19
UWE-3 22 Jan 10:14:09 10:17:54 28° 289° (WNW) 10:21:44 435.000/436.395/437.385
HUMSAT D 22 Jan 10:20:18 10:24:01 28° 96° (E) 10:27:44 437.325/437.525
ZACube-1 22 Jan 10:27:58 10:31:54 33° 288° (WNW) 10:35:55 437.345
UNISAT 6 22 Jan 10:33:28 10:37:40 59° 259° (W) 10:41:53 437.425
NANOSAT C BR1 22 Jan 10:43:14 10:45:10 13° 66° (ENE) 10:47:05 145.865
TIGRISAT 22 Jan 10:46:19 10:50:23 44° 261° (W) 10:54:27 435.000
PCSat 22 Jan 10:48:35 10:53:57 62° 247° (WSW) 10:59:16 145.827
Oscar 11 22 Jan 11:01:20 11:04:12 17° 293° (WNW) 11:07:04 145.826/435.025
ANTELSAT 22 Jan 11:02:39 11:06:17 27° 264° (W) 11:09:55 437.575/2403.000
JAS-2 22 Jan 11:13:23 11:18:41 88° 257° (WSW) 11:24:34 435.910
QB50P1 22 Jan 11:34:25 11:38:31 56° 74° (ENE) 11:42:38 145.935-145.965
POLYITAN 1 22 Jan 11:39:15 11:43:23 65° 76° (ENE) 11:47:33 437.675
DELFI C3 22 Jan 11:39:46 11:42:15 16° 292° (WNW) 11:44:43 145.870
QB50P2 22 Jan 11:40:32 11:44:43 74° 76° (ENE) 11:48:55 145.880/145.840
ESTCUBE 1 22 Jan 11:47:10 11:51:17 33° 97° (E) 11:55:20 437.505/2401.250
VELOX 1 22 Jan 11:51:14 11:52:40 11° 92° (E) 11:54:06 145.980
HUMSAT D 22 Jan 11:56:09 11:59:26 22° 291° (WNW) 12:02:44 437.325/437.525
POPSAT HIP 1 22 Jan 12:01:30 12:05:40 68° 258° (WSW) 12:09:51 437.405
SPROUT 22 Jan 12:03:33 12:04:58 11° 92° (E) 12:06:24 437.525
RS-15 22 Jan 12:06:05 12:11:45 15° 264° (W) 12:17:21 29.354- 29.394
DUCHIFAT 1 22 Jan 12:09:33 12:13:41 64° 259° (W) 12:17:49 145.980
BY70-1 22 Jan 12:10:20 12:13:24 43° 286° (WNW) 12:16:15 436.1900
NANOSAT C BR1 22 Jan 12:16:25 12:20:26 47° 260° (W) 12:24:29 145.865
Oscar 19 22 Jan 12:18:05 12:21:12 16° 64° (ENE) 12:24:21 437.125/150
Cosmos 2491 22 Jan 12:25:59 12:32:31 22° 68° (ENE) 12:39:01 435.465 / 435.565
CUBEBUG 1 22 Jan 12:29:33 12:33:49 57° 101° (E) 12:38:03 437.445
BUGSAT 1 22 Jan 12:35:09 12:39:13 86° 74° (ENE) 12:43:16 437.445
AO-85 22 Jan 12:39:22 12:41:37 13° 109° (ESE) 12:43:47 145.980
Gurwin Techsat 1B 22 Jan 12:49:36 12:53:01 18° 64° (ENE) 12:56:27 435.225
AISAT 22 Jan 12:51:48 12:56:10 65° 101° (E) 13:00:30 437.250
50 SAT 22 Jan 12:55:48 12:59:15 50° 100° (E) 13:02:41 437.505
TISAT 1 22 Jan 13:23:19 13:24:59 12° 92° (E) 13:26:39 437.305
ESTCUBE 1 22 Jan 13:24:28 13:27:49 21° 292° (WNW) 13:31:10 437.505/2401.250
VELOX 1 22 Jan 13:25:08 13:29:26 54° 286° (WNW) 13:33:41 145.980
CUSAT 1 22 Jan 13:26:35 13:32:50 25° 67° (ENE) 13:38:36 437.405
SPROUT 22 Jan 13:37:01 13:41:09 51° 286° (WNW) 13:45:16 437.525
UKube-1 22 Jan 13:44:11 13:48:30 80° 101° (E) 13:52:48 .
DX 1 22 Jan 13:49:41 13:53:58 62° 286° (WNW) 13:58:14 434.975-435.025
AO-7 22 Jan 13:53:47 13:59:36 21° 55° (NE) 14:05:25 29.400- 29.500
Oscar 19 22 Jan 13:54:54 14:00:00 58° 259° (W) 14:05:09 437.125/150
AIST 1 22 Jan 13:55:50 13:59:52 38° 92° (E) 14:03:54
JUGNU 22 Jan 14:07:59 14:10:26 13° 172° (S) 14:12:55 437.505
CUBEBUG 1 22 Jan 14:08:07 14:09:34 12° 296° (WNW) 14:11:01 437.445
Cosmos 2504 22 Jan 14:13:22 14:20:04 26° 84° (E) 14:26:30 435.465 / 435.565
AO-85 22 Jan 14:16:56 14:21:39 60° 302° (WNW) 14:26:01 145.980
Cosmos 2491 22 Jan 14:21:22 14:30:07 72° 267° (W) 14:38:52 435.465 / 435.565
YUBILEINY 22 Jan 14:23:10 14:31:42 58° 91° (E) 14:40:18 435.215
Gurwin Techsat 1B 22 Jan 14:27:18 14:32:29 55° 259° (W) 14:37:42 435.225
AISAT 22 Jan 14:31:04 14:32:02 11° 297° (WNW) 14:33:01 437.250
ITUPSAT 1 22 Jan 14:34:57 14:37:52 16° 93° (E) 14:40:46 437.325
DANDE 22 Jan 14:37:42 14:44:49 33° 72° (ENE) 14:52:06 436.750
ITAMSAT 1 22 Jan 14:43:07 14:47:54 41° 71° (ENE) 14:52:44 435.822/435.867
TISAT 1 22 Jan 14:56:50 15:00:50 46° 287° (WNW) 15:04:49 437.305
BEESAT 22 Jan 15:06:48 15:11:12 36° 98° (E) 15:15:34 436.000
CUSAT 1 22 Jan 15:07:31 15:15:24 66° 266° (W) 15:22:20 437.405
SWISSCUBE 22 Jan 15:08:34 15:13:07 42° 99° (E) 15:17:40 437.505
BRITE-PL 22 Jan 15:28:13 15:28:53 10° 61° (ENE) 15:29:33 437.365/2234.400
SO-50 22 Jan 15:29:45 15:30:37 10° 41° (NE) 15:31:29 436.795
AIST 1 22 Jan 15:35:01 15:37:36 15° 287° (WNW) 15:40:12
AO-7 22 Jan 15:43:00 15:51:22 83° 253° (WSW) 15:59:48 29.400- 29.500
SRMSAT 22 Jan 15:43:37 15:44:16 10° 167° (SSE) 15:44:54 437.500
BEESAT 3 22 Jan 15:45:52 15:49:21 33° 114° (ESE) 15:52:54 437.485
JUGNU 22 Jan 15:55:38 15:58:36 14° 183° (S) 16:01:37 437.505
Cosmos 2504 22 Jan 16:04:19 16:12:52 60° 280° (W) 16:20:58 435.465 / 435.565
ITUPSAT 1 22 Jan 16:11:16 16:15:54 47° 288° (WNW) 16:20:30 437.325
O/OREOS (USA 219) 22 Jan 16:11:27 16:15:43 40° 65° (ENE) 16:19:59 437.305
MOZHAYETS 4 22 Jan 16:18:27 16:23:05 65° 101° (E) 16:27:41
DANDE 22 Jan 16:19:56 16:27:45 54° 267° (W) 16:35:42 436.750
YUBILEINY 22 Jan 16:21:38 16:28:55 28° 289° (WNW) 16:36:18 435.215
Cosmos 2491 22 Jan 16:23:25 16:25:16 11° 285° (WNW) 16:27:07 435.465 / 435.565
ITAMSAT 1 22 Jan 16:23:37 16:27:29 21° 265° (W) 16:31:22 435.822/435.867
M-CUBED/EXP-1 PRIME 22 Jan 16:34:48 16:37:19 20° 101° (E) 16:39:49 437.505
BEESAT 2 22 Jan 16:35:31 16:39:19 52° 116° (ESE) 16:43:11 435.950
KKS-1 22 Jan 16:41:08 16:45:07 32° 98° (E) 16:49:03 437.445
BEESAT 22 Jan 16:45:06 16:48:43 22° 293° (WNW) 16:52:19 436.000
HORYU 2 22 Jan 16:46:58 16:50:24 23° 68° (ENE) 16:53:49 437.375
SWISSCUBE 22 Jan 16:47:15 16:50:33 19° 294° (WNW) 16:53:51 437.505
GOMX 1 22 Jan 16:53:47 16:58:15 27° 70° (ENE) 17:02:32 467.674
CUSAT 1 22 Jan 16:55:11 16:55:37 10° 284° (WNW) 16:56:02 437.405
NOAA 15 22 Jan 16:57:26 16:59:52 13° 61° (ENE) 17:02:19 137.62
Cubesat XI-IV 22 Jan 16:57:33 16:59:39 12° 61° (ENE) 17:01:46 437.490
BRITE-PL 22 Jan 17:00:45 17:06:26 78° 76° (ENE) 17:12:04 437.365/2234.400
SO-50 22 Jan 17:07:17 17:11:49 82° 62° (ENE) 17:16:15 436.795
AUBIESAT-1 22 Jan 17:08:47 17:12:00 49° 105° (ESE) 17:15:12 437.475
CUBESAT XI-V 22 Jan 17:10:56 17:15:11 33° 97° (E) 17:19:23 437.345
DOVE 4 22 Jan 17:21:36 17:25:01 19° 68° (ENE) 17:28:19 437.250
NOAA 18 22 Jan 17:21:39 17:23:46 12° 60° (ENE) 17:25:53 137.9125
BEESAT 3 22 Jan 17:24:13 17:27:02 19° 310° (NW) 17:29:53 437.485
STARS 22 Jan 17:27:20 17:31:33 46° 100° (E) 17:35:45 437.465
SRMSAT 22 Jan 17:29:25 17:32:36 15° 177° (S) 17:35:46 437.500
AO-7 22 Jan 17:41:09 17:45:08 14° 269° (W) 17:49:09 29.400- 29.500
CUTE-I 22 Jan 17:50:08 17:55:03 40° 70° (ENE) 18:00:00 437.470
LilacSat-2 22 Jan 17:50:54 17:54:21 35° 73° (ENE) 17:57:49 437.200
O/OREOS (USA 219) 22 Jan 17:51:58 17:54:44 16° 260° (W) 17:57:31 437.305
MOZHAYETS 4 22 Jan 17:57:56 17:59:39 12° 296° (WNW) 18:01:21
M-CUBED/EXP-1 PRIME 22 Jan 18:09:32 18:11:41 16° 296° (WNW) 18:13:48 437.505
BEESAT 2 22 Jan 18:15:17 18:17:24 14° 313° (NW) 18:19:33 435.950
KKS-1 22 Jan 18:18:10 18:21:27 21° 292° (WNW) 18:24:43 437.445
HORYU 2 22 Jan 18:22:58 18:26:46 28° 263° (W) 18:30:36 437.375
Cosmos 2499 22 Jan 18:23:05 18:26:24 13° 79° (E) 18:29:37 435.465 / 435.565
GOMX 1 22 Jan 18:31:16 18:36:08 34° 263° (W) 18:40:50 467.674
CINEMA 3 22 Jan 18:32:17 18:35:34 21° 70° (ENE) 18:38:47 145.822/145.860
HO-68 22 Jan 18:33:08 18:38:59 28° 62° (ENE) 18:44:49 435.675
NOAA 15 22 Jan 18:33:41 18:38:58 74° 258° (WSW) 18:44:18 137.62
Cubesat XI-IV 22 Jan 18:33:42 18:39:01 79° 257° (WSW) 18:44:21 437.490
BRITE-PL 22 Jan 18:42:56 18:45:21 13° 270° (W) 18:47:45 437.365/2234.400
CUBESAT XI-V 22 Jan 18:48:46 18:52:19 22° 292° (WNW) 18:55:49 437.345
AIST 2 22 Jan 18:55:40 18:59:15 30° 113° (ESE) 19:02:54 435.215
DOVE 4 22 Jan 18:57:41 19:02:25 42° 261° (W) 19:06:55 437.250
NOAA 18 22 Jan 18:58:09 19:03:39 84° 256° (WSW) 19:09:10 137.9125
STARS 22 Jan 19:05:07 19:07:28 14° 295° (WNW) 19:09:49 437.465
CUTE 1.7 + AOD 2 22 Jan 19:08:33 19:12:11 29° 71° (ENE) 19:15:52 437.475
CUBEBUG 2 22 Jan 19:11:47 19:13:24 12° 66° (ENE) 19:14:59 437.445
GONETS M04 22 Jan 19:12:46 19:19:40 27° 83° (E) 19:26:35
SRMSAT 22 Jan 19:18:16 19:20:57 13° 188° (S) 19:23:36 437.500
LilacSat-2 22 Jan 19:27:03 19:28:45 13° 267° (W) 19:30:28 437.200
CUTE-I 22 Jan 19:31:08 19:35:12 22° 266° (W) 19:39:18 437.470
UWE-3 22 Jan 19:34:18 19:36:21 14° 66° (ENE) 19:38:24 435.000/436.395/437.385
CANX-2 22 Jan 19:37:38 19:41:52 76° 78° (ENE) 19:46:10 2200.000
SEEDS 22 Jan 19:43:28 19:47:32 48° 74° (ENE) 19:51:38 437.485
COMPASS 1 22 Jan 19:44:19 19:48:00 31° 72° (ENE) 19:51:44 437.405
ZACube-1 22 Jan 19:48:05 19:49:19 11° 65° (ENE) 19:50:33 437.345
AAUSAT CUBESAT 2 22 Jan 19:53:01 19:56:38 30° 71° (ENE) 20:00:18 437.432
STRAND 1 22 Jan 19:56:24 20:01:25 51° 100° (E) 20:06:24 437.568
CINEMA 3 22 Jan 20:08:42 20:12:33 29° 263° (W) 20:16:16 145.822/145.860
Cosmos 2499 22 Jan 20:09:56 20:18:25 83° 96° (E) 20:26:16 435.465 / 435.565
Oscar 11 22 Jan 20:17:17 20:20:36 22° 69° (ENE) 20:23:56 145.826/435.025
HO-68 22 Jan 20:19:16 20:26:15 54° 259° (WSW) 20:33:18 435.675
ISS 22 Jan 20:32:35 20:33:57 12° 128° (SE) 20:35:19 145.825
AIST 2 22 Jan 20:34:26 20:37:44 23° 309° (NW) 20:41:04 435.215
CUTE 1.7 + AOD 2 22 Jan 20:44:49 20:48:00 21° 266° (W) 20:51:13 437.475
CUBEBUG 2 22 Jan 20:45:32 20:49:34 49° 261° (W) 20:53:36 437.445
DELFI C3 22 Jan 20:48:34 20:50:51 15° 67° (ENE) 20:53:08 145.870
FUNcube-1 22 Jan 20:56:18 21:00:23 67° 76° (ENE) 21:04:31 145.935
